When you browse on this site, cookies collect data to enhance your experience and personalize the content and advertising you see.
Visit our Privacy Policy to learn more. By continuing to use the site, you agree to this use of cookies and data.
  • In Austria
  • List of Countries
  • For 7 days
  • Water Temperature
  • Weather Map
  • News
  • Weather Widgets
  • user-avatar
    Login

    Hourly Weather Sidi Bu-l-Abbas

    Today, 18 October, Friday

    Time Temperature Precipitation Wind Pressure Humidity
    00:00 +18°C° 0 mm 0 mps 722 mmHg 71%
    01:00 +17°C° 0 mm 0 mps 722 mmHg 73%
    02:00 +17°C° 0 mm 0 mps 722 mmHg 75%
    03:00 +16°C° 0 mm 0 mps 721 mmHg 77%
    04:00 +16°C° 0 mm 0 mps 721 mmHg 78%
    05:00 +16°C° 0 mm 0 mps 721 mmHg 79%
    06:00 +16°C° 0 mm 0 mps 721 mmHg 80%
    07:00 +17°C° 0 mm 0 mps 721 mmHg 73%
    08:00 +19°C° 0 mm 0 mps 722 mmHg 65%
    09:00 +21°C° 0 mm 0 mps 722 mmHg 57%
    10:00 +24°C° 0 mm 1 mps 722 mmHg 52%
    11:00 +25°C° 0 mm 1 mps 722 mmHg 47%
    12:00 +26°C° 0 mm 2 mps 722 mmHg 42%
    13:00 +27°C° 0 mm 3 mps 721 mmHg 40%
    14:00 +27°C° 0 mm 3 mps 721 mmHg 38%
    15:00 +27°C° 0 mm 3 mps 721 mmHg 36%
    16:00 +26°C° 0 mm 3 mps 720 mmHg 38%
    17:00 +25°C° 0 mm 2 mps 720 mmHg 40%
    18:00 +23°C° 0 mm 2 mps 720 mmHg 42%
    19:00 +23°C° 0 mm 1 mps 720 mmHg 45%
    20:00 +22°C° 0 mm 1 mps 720 mmHg 48%
    21:00 +19°C° 0 mm 0 mps 720 mmHg 50%
    22:00 +19°C° 0 mm 0 mps 720 mmHg 52%
    23:00 +19°C° 0 mm 0 mps 719 mmHg 53%

    Tomorrow, 19 October, Saturday

    Time Temperature Precipitation Wind Pressure Humidity
    00:00 +21°C° 0 mm 1 mps 719 mmHg 55%
    01:00 +20°C° 0 mm 1 mps 719 mmHg 56%
    02:00 +20°C° 0 mm 1 mps 719 mmHg 57%
    03:00 +20°C° 0 mm 1 mps 718 mmHg 58%
    04:00 +19°C° 0 mm 1 mps 718 mmHg 59%
    05:00 +19°C° 0 mm 1 mps 718 mmHg 59%
    06:00 +19°C° 0 mm 1 mps 718 mmHg 59%
    07:00 +20°C° 0 mm 1 mps 718 mmHg 53%
    08:00 +21°C° 0 mm 2 mps 719 mmHg 47%
    09:00 +24°C° 0 mm 2 mps 719 mmHg 41%
    10:00 +25°C° 0 mm 3 mps 719 mmHg 41%
    11:00 +26°C° 0 mm 4 mps 719 mmHg 40%
    12:00 +26°C° 0 mm 4 mps 718 mmHg 40%
    13:00 +26°C° 0 mm 4 mps 718 mmHg 42%
    14:00 +26°C° 0 mm 4 mps 717 mmHg 45%
    15:00 +26°C° 0 mm 4 mps 717 mmHg 47%
    16:00 +25°C° 0 mm 3 mps 717 mmHg 52%
    17:00 +24°C° 0 mm 2 mps 717 mmHg 56%
    18:00 +23°C° 0 mm 2 mps 717 mmHg 61%
    19:00 +22°C° 0 mm 1 mps 717 mmHg 62%
    20:00 +22°C° 0 mm 1 mps 717 mmHg 63%
    21:00 +22°C° 0 mm 1 mps 717 mmHg 65%
    22:00 +21°C° 0 mm 1 mps 717 mmHg 65%
    23:00 +21°C° 0 mm 1 mps 717 mmHg 66%

    Day after tomorrow, 20 October, Sunday

    Time Temperature Precipitation Wind Pressure Humidity
    00:00 +21°C° 0 mm 1 mps 717 mmHg 67%
    01:00 +20°C° 0 mm 1 mps 717 mmHg 67%
    02:00 +20°C° 0 mm 1 mps 717 mmHg 67%
    03:00 +18°C° 0 mm 0 mps 716 mmHg 67%
    04:00 +20°C° 0 mm 1 mps 716 mmHg 66%
    05:00 +20°C° 0 mm 1 mps 716 mmHg 64%
    06:00 +20°C° 0 mm 1 mps 716 mmHg 62%
    07:00 +22°C° 0 mm 1 mps 717 mmHg 56%
    08:00 +23°C° 0 mm 2 mps 717 mmHg 50%
    09:00 +25°C° 0 mm 3 mps 718 mmHg 44%
    10:00 +25°C° 0 mm 3 mps 718 mmHg 44%
    11:00 +26°C° 0 mm 4 mps 717 mmHg 43%
    12:00 +27°C° 0 mm 4 mps 717 mmHg 42%
    13:00 +26°C° 0 mm 5 mps 717 mmHg 47%
    14:00 +25°C° 0 mm 5 mps 717 mmHg 51%
    15:00 +23°C° 0 mm 5 mps 717 mmHg 55%
    16:00 +22°C° 0.1 mm 4 mps 717 mmHg 64%
    17:00 +20°C° 0.1 mm 4 mps 717 mmHg 73%
    18:00 +19°C° 0.1 mm 4 mps 717 mmHg 82%
    19:00 +18°C° 1 mm 3 mps 718 mmHg 83%
    20:00 +18°C° 1 mm 2 mps 718 mmHg 83%
    21:00 +18°C° 1 mm 1 mps 718 mmHg 84%
    22:00 +18°C° 0.6 mm 1 mps 718 mmHg 84%
    23:00 +17°C° 0.6 mm 2 mps 718 mmHg 83%

    21 October, Monday

    Time Temperature Precipitation Wind Pressure Humidity
    00:00 +17°C° 0.6 mm 2 mps 718 mmHg 82%
    01:00 +16°C° 0.6 mm 2 mps 718 mmHg 83%
    02:00 +16°C° 0.6 mm 2 mps 718 mmHg 84%
    03:00 +16°C° 0.6 mm 2 mps 718 mmHg 85%
    04:00 +15°C° 0.2 mm 2 mps 718 mmHg 84%
    05:00 +15°C° 0.2 mm 1 mps 718 mmHg 83%
    06:00 +15°C° 0.2 mm 1 mps 718 mmHg 82%
    07:00 +16°C° 0 mm 1 mps 718 mmHg 81%
    08:00 +16°C° 0 mm 1 mps 718 mmHg 80%
    09:00 +16°C° 0 mm 1 mps 718 mmHg 78%
    10:00 +17°C° 0 mm 2 mps 718 mmHg 74%
    11:00 +18°C° 0 mm 3 mps 718 mmHg 69%
    12:00 +19°C° 0 mm 3 mps 718 mmHg 65%
    13:00 +19°C° 0 mm 4 mps 718 mmHg 68%
    14:00 +17°C° 0 mm 5 mps 717 mmHg 71%
    15:00 +17°C° 0 mm 6 mps 717 mmHg 74%
    16:00 +16°C° 0.3 mm 5 mps 717 mmHg 77%
    17:00 +17°C° 0.3 mm 4 mps 717 mmHg 81%
    18:00 +16°C° 0.3 mm 3 mps 717 mmHg 85%
    19:00 +16°C° 0.3 mm 3 mps 717 mmHg 85%
    20:00 +16°C° 0.3 mm 3 mps 717 mmHg 86%
    21:00 +16°C° 0.3 mm 3 mps 717 mmHg 87%
    22:00 +16°C° 0.2 mm 3 mps 717 mmHg 87%
    23:00 +16°C° 0.2 mm 3 mps 717 mmHg 88%

    22 October, Tuesday

    Time Temperature Precipitation Wind Pressure Humidity
    00:00 +16°C° 0.2 mm 3 mps 717 mmHg 88%
    01:00 +14°C° 0.9 mm 4 mps 717 mmHg 89%
    02:00 +14°C° 0.9 mm 4 mps 716 mmHg 90%
    03:00 +13°C° 0.9 mm 4 mps 716 mmHg 91%
    04:00 +13°C° 1.3 mm 4 mps 716 mmHg 90%
    05:00 +12°C° 1.3 mm 3 mps 715 mmHg 90%
    06:00 +12°C° 1.3 mm 3 mps 715 mmHg 90%
    07:00 +12°C° 0.1 mm 3 mps 715 mmHg 87%
    08:00 +12°C° 0.1 mm 4 mps 715 mmHg 84%
    09:00 +12°C° 0.1 mm 4 mps 715 mmHg 82%
    10:00 +12°C° 0 mm 5 mps 715 mmHg 81%
    11:00 +12°C° 0 mm 5 mps 714 mmHg 80%
    12:00 +13°C° 0 mm 6 mps 714 mmHg 79%
    13:00 +11°C° 0 mm 6 mps 714 mmHg 79%
    14:00 +11°C° 0 mm 7 mps 713 mmHg 78%
    15:00 +10°C° 0 mm 7 mps 713 mmHg 78%
    16:00 +10°C° 0.1 mm 7 mps 713 mmHg 77%
    17:00 +10°C° 0.1 mm 7 mps 714 mmHg 76%
    18:00 +10°C° 0.1 mm 6 mps 714 mmHg 75%
    19:00 +10°C° 0 mm 6 mps 714 mmHg 72%
    20:00 +10°C° 0 mm 5 mps 714 mmHg 69%
    21:00 +10°C° 0 mm 5 mps 714 mmHg 66%
    22:00 +10°C° 0 mm 5 mps 714 mmHg 67%
    23:00 +10°C° 0 mm 6 mps 714 mmHg 68%

    23 October, Wednesday

    Time Temperature Precipitation Wind Pressure Humidity
    00:00 +10°C° 0 mm 7 mps 714 mmHg 69%
    01:00 +10°C° 0.2 mm 6 mps 714 mmHg 67%
    02:00 +11°C° 0.2 mm 6 mps 714 mmHg 65%
    03:00 +11°C° 0.2 mm 6 mps 714 mmHg 63%
    04:00 +11°C° 0 mm 6 mps 714 mmHg 63%
    05:00 +10°C° 0 mm 6 mps 714 mmHg 64%
    06:00 +10°C° 0 mm 6 mps 714 mmHg 64%
    07:00 +11°C° 0 mm 8 mps 714 mmHg 59%
    08:00 +12°C° 0 mm 9 mps 715 mmHg 53%
    09:00 +13°C° 0 mm 11 mps 715 mmHg 48%
    10:00 +14°C° 0 mm 11 mps 715 mmHg 45%
    11:00 +15°C° 0 mm 12 mps 715 mmHg 41%
    12:00 +17°C° 0 mm 12 mps 715 mmHg 38%
    13:00 +15°C° 0 mm 13 mps 715 mmHg 41%
    14:00 +15°C° 0 mm 13 mps 715 mmHg 44%
    15:00 +15°C° 0 mm 13 mps 715 mmHg 47%
    16:00 +14°C° 0 mm 12 mps 715 mmHg 49%
    17:00 +14°C° 0 mm 11 mps 715 mmHg 52%
    18:00 +13°C° 0 mm 10 mps 715 mmHg 54%
    19:00 +13°C° 0 mm 9 mps 716 mmHg 55%
    20:00 +14°C° 0 mm 7 mps 717 mmHg 57%
    21:00 +14°C° 0 mm 6 mps 717 mmHg 58%
    22:00 +12°C° 0 mm 7 mps 717 mmHg 57%
    23:00 +12°C° 0 mm 8 mps 717 mmHg 57%
    Show more